Hourly Data Report for December 21, 2020

L'ASSOMPTION
QUEBEC
Current Station Operator: ECCC - MSC

45°48'34.000" N
73°26'05.000" W
21.00 m
7014160
71524
WEW

Download Data

Hourly Data (December 2020)
Hourly Data Report for December 21, 2020
TIME
LST
Temp Definition
°C
Dew Point Definition
°C
Rel Hum Definition
%
Precip. Amount Definition
mm

Wind Dir Definition
10's deg

Wind Spd Definition
km/h
Visibility Definition
km
Stn Press Definition
kPa
Hmdx Definition


Wind Chill Definition


Weather Definition


00:00 0.4 -1.2 89 0.0 18 11   100.91     LegendNANA
01:00 0.5 -1.1 89 0.0 17 8   100.87     LegendNANA
02:00 0.6 -1.0 89 0.0 17 9   100.87     LegendNANA
03:00 0.7 -0.7 90 0.0 16 7   100.85     LegendNANA
04:00 0.9 -0.6 90 0.0 15 14   100.81     LegendNANA
05:00 1.0 -0.6 89 0.0 17 8   100.77     LegendNANA
06:00 1.0 -0.5 89 0.0 17 9   100.78     LegendNANA
07:00 1.0 -0.4 90 0.0 16 10   100.76     LegendNANA
08:00 1.1 -0.5 89 0.0 16 10   100.75     LegendNANA
09:00 1.0 -0.2 91 0.0 16 7   100.77     LegendNANA
10:00 1.4 -0.1 90 0.3 17 6   100.77     LegendNANA
11:00 1.7 0.0 88 0.0 17 7   100.69     LegendNANA
12:00 1.9 0.1 87 0.0 18 5   100.61     LegendNANA
13:00 2.1 0.2 87 0.0 14 3   100.54     LegendNANA
14:00 2.2 0.1 86 0.0 10 4   100.48     LegendNANA
15:00 2.1 0.3 88 0.0 9 3   100.47     LegendNANA
16:00 1.3 0.0 91 0.0 3 1   100.46     LegendNANA
17:00 0.5 -0.2 95 0.0 30 3   100.48     LegendNANA
18:00 1.0 0.2 94 0.0 34 6   100.46     LegendNANA
19:00 0.6 -0.1 95 0.0 6 4   100.44     LegendNANA
20:00 0.5 0.0 96 0.0 4 3   100.39     LegendNANA
21:00 0.1 -0.4 97 0.0 34 1   100.34     LegendNANA
22:00 -0.2 -0.6 97 0.0 36 5   100.27   -2 LegendNANA
23:00 -0.1 -0.5 97 0.0 32 4   100.22   -1 LegendNANA

Notes on Data Quality.

Legend

  • E = Estimated
  • M = Missing
  • NA = Not Available*
  • [empty] = Indicates an unobserved value
Date modified: